sat.trackr.live / text

‹ back to catalog

STARLINK-5114

NORAD 54003 · 2022-125AR

PAYLOAD ACTIVE UNKNOWN

§ Identity

Operator
Country
US
Launch date
2022-10-05
Launch site
AFWTR
Launch vehicle
Mass (kg)
RCS (m²)

Purposes: comms

External: N2YO · Heavens-Above · Gunter

§ Orbital elements

Epoch: 2026-05-24T17:19:34.185216Z

Period
95.44 min
Inclination
53.2133°
Eccentricity
0.0001599
Mean motion
15.08835468 rev/d
Perigee alt
538.7 km
Apogee alt
540.9 km
Semi-major
6,917.9 km
B*
4.9771e-5
RAAN
232.5995°
Arg perigee
81.9548°
Mean anomaly
278.1626°
Rev number
20,094

§ Raw data

STARLINK-51141 54003U 22125AR  26144.72192344  .00000504  00000+0  49771-4 0  99932 54003  53.2133 232.5995 0001599  81.9548 278.1626 15.08835468200940

JSON: /api/v1/satellites/54003 · /tle

For live sub-satellite position, see the globe view (requires WebGL).

§ Visibility from observer

Set your observer location to see the next 7 days of passes ≥ 10°. The values pass through the URL so the page stays shareable.

No JS? Fill the form by hand. The geolocation button needs JavaScript.